Location: Newark
(36.7344°N, 137.0547°E)
Time: 18:41:16
(UTC+00:00)

OTV 5 (USA 277) - Visible Passes

Search period start: 20 October 2019 00:00
Search period end: 30 October 2019 00:00
Orbit: 310 x 324 km, 54.5° (Epoch: 17 October)

Date Brightness Start Highest point End Pass type
(mag) Time Alt. Az. Time Alt. Az. Time Alt. Az.
20 Oct ? 20:14:15 16° WNW 20:16:09 47° SW 20:18:47 10° SSE visible
21 Oct ? 18:58:09 14° E 18:58:09 14° E 18:58:47 10° E visible
21 Oct ? 20:29:05 11° W 20:30:32 15° SW 20:32:09 10° SSW visible
22 Oct ? 19:13:07 15° SE 19:13:07 15° SE 19:13:44 10° SE visible
26 Oct ? 09:02:58 10° SSE 09:03:41 12° SE 09:03:41 12° SE visible
27 Oct ? 09:16:08 10° SSW 09:18:31 40° SE 09:18:31 40° SE visible
28 Oct ? 09:30:34 10° WSW 09:33:12 50° NW 09:33:12 50° NW visible
29 Oct ? 09:45:52 10° W 09:47:45 19° NW 09:47:45 19° NW visible
